• In Romania
  • List of Countries
  • For 7 days
  • Water Temperature
  • Satellite Maps
  • Weather Map
  • Weather Widgets
  • user-avatar
    Login

    Hourly Weather Wiktoria

    Today, 18 November, Saturday

    Time Temperature Precipitation Wind Pressure Humidity
    00:00 +16°C° 0 mm 1 mps 749 mmHg 71%
    01:00 +16°C° 0 mm 1 mps 749 mmHg 73%
    02:00 +15°C° 0 mm 2 mps 749 mmHg 77%
    03:00 +15°C° 0 mm 2 mps 749 mmHg 82%
    04:00 +14°C° 0 mm 2 mps 749 mmHg 87%
    05:00 +16°C° 0 mm 3 mps 749 mmHg 84%
    06:00 +17°C° 0 mm 4 mps 750 mmHg 81%
    07:00 +17°C° 0 mm 5 mps 750 mmHg 77%
    08:00 +21°C° 0 mm 5 mps 750 mmHg 71%
    09:00 +23°C° 0 mm 5 mps 750 mmHg 64%
    10:00 +26°C° 0 mm 5 mps 750 mmHg 56%
    11:00 +26°C° 0.4 mm 4 mps 750 mmHg 54%
    12:00 +27°C° 0.4 mm 4 mps 750 mmHg 52%
    13:00 +28°C° 0.4 mm 4 mps 750 mmHg 50%
    14:00 +27°C° 0.4 mm 4 mps 750 mmHg 53%
    15:00 +27°C° 0.4 mm 4 mps 750 mmHg 56%
    16:00 +23°C° 0 mm 6 mps 750 mmHg 70%
    17:00 +22°C° 0.1 mm 5 mps 750 mmHg 74%
    18:00 +21°C° 0.1 mm 4 mps 750 mmHg 79%
    19:00 +20°C° 0.1 mm 3 mps 751 mmHg 83%
    20:00 +19°C° 0 mm 3 mps 751 mmHg 85%
    21:00 +18°C° 0 mm 3 mps 751 mmHg 88%
    22:00 +17°C° 0 mm 2 mps 751 mmHg 94%
    23:00 +17°C° 0 mm 2 mps 752 mmHg 93%

    Tomorrow, 19 November, Sunday

    Time Temperature Precipitation Wind Pressure Humidity
    00:00 +17°C° 0 mm 3 mps 752 mmHg 91%
    01:00 +17°C° 0 mm 3 mps 752 mmHg 90%
    02:00 +17°C° 0 mm 3 mps 752 mmHg 89%
    03:00 +16°C° 0 mm 3 mps 752 mmHg 88%
    04:00 +16°C° 0 mm 3 mps 753 mmHg 87%
    05:00 +17°C° 0 mm 4 mps 753 mmHg 82%
    06:00 +17°C° 0 mm 5 mps 753 mmHg 77%
    07:00 +19°C° 0 mm 5 mps 754 mmHg 72%
    08:00 +21°C° 0 mm 5 mps 754 mmHg 65%
    09:00 +22°C° 0 mm 5 mps 753 mmHg 59%
    10:00 +25°C° 0 mm 5 mps 753 mmHg 53%
    11:00 +26°C° 0 mm 5 mps 753 mmHg 49%
    12:00 +28°C° 0 mm 4 mps 753 mmHg 45%
    13:00 +29°C° 0 mm 4 mps 753 mmHg 42%
    14:00 +29°C° 0 mm 4 mps 753 mmHg 42%
    15:00 +29°C° 0 mm 3 mps 752 mmHg 41%
    16:00 +29°C° 0 mm 3 mps 752 mmHg 41%
    17:00 +27°C° 0 mm 3 mps 752 mmHg 46%
    18:00 +25°C° 0 mm 2 mps 752 mmHg 51%
    19:00 +24°C° 0 mm 1 mps 752 mmHg 57%
    20:00 +23°C° 0 mm 2 mps 753 mmHg 59%
    21:00 +21°C° 0 mm 2 mps 753 mmHg 61%
    22:00 +20°C° 0 mm 2 mps 754 mmHg 63%
    23:00 +19°C° 0 mm 2 mps 754 mmHg 64%

    Day after tomorrow, 20 November, Monday

    Time Temperature Precipitation Wind Pressure Humidity
    00:00 +19°C° 0 mm 3 mps 754 mmHg 65%
    01:00 +19°C° 0 mm 3 mps 754 mmHg 67%
    02:00 +18°C° 0 mm 3 mps 754 mmHg 70%
    03:00 +17°C° 0 mm 3 mps 754 mmHg 73%
    04:00 +16°C° 0 mm 3 mps 755 mmHg 76%
    05:00 +17°C° 0 mm 3 mps 755 mmHg 73%
    06:00 +18°C° 0 mm 3 mps 756 mmHg 71%
    07:00 +19°C° 0 mm 4 mps 756 mmHg 68%
    08:00 +21°C° 0 mm 3 mps 756 mmHg 62%
    09:00 +24°C° 0 mm 3 mps 756 mmHg 55%
    10:00 +26°C° 0 mm 3 mps 756 mmHg 49%
    11:00 +27°C° 0 mm 3 mps 755 mmHg 45%
    12:00 +28°C° 0 mm 3 mps 755 mmHg 42%
    13:00 +30°C° 0 mm 2 mps 754 mmHg 39%
    14:00 +30°C° 0 mm 2 mps 754 mmHg 37%
    15:00 +30°C° 0 mm 3 mps 753 mmHg 36%
    16:00 +31°C° 0 mm 3 mps 753 mmHg 35%
    17:00 +29°C° 0 mm 2 mps 753 mmHg 40%
    18:00 +27°C° 0 mm 2 mps 753 mmHg 46%
    19:00 +25°C° 0 mm 1 mps 753 mmHg 51%
    20:00 +24°C° 0 mm 1 mps 753 mmHg 52%
    21:00 +23°C° 0 mm 1 mps 754 mmHg 52%
    22:00 +22°C° 0 mm 1 mps 754 mmHg 53%
    23:00 +20°C° 0 mm 2 mps 754 mmHg 55%

    21 November, Tuesday

    Time Temperature Precipitation Wind Pressure Humidity
    00:00 +20°C° 0 mm 2 mps 754 mmHg 57%
    01:00 +19°C° 0 mm 3 mps 754 mmHg 59%
    02:00 +18°C° 0 mm 3 mps 754 mmHg 64%
    03:00 +18°C° 0 mm 3 mps 754 mmHg 69%
    04:00 +17°C° 0 mm 3 mps 754 mmHg 75%
    05:00 +18°C° 0 mm 4 mps 754 mmHg 73%
    06:00 +18°C° 0 mm 4 mps 754 mmHg 71%
    07:00 +19°C° 0 mm 4 mps 755 mmHg 69%
    08:00 +21°C° 0 mm 4 mps 754 mmHg 63%
    09:00 +23°C° 0 mm 4 mps 754 mmHg 56%
    10:00 +26°C° 0 mm 3 mps 754 mmHg 50%
    11:00 +27°C° 0 mm 3 mps 754 mmHg 46%
    12:00 +29°C° 0 mm 3 mps 753 mmHg 42%
    13:00 +30°C° 0 mm 2 mps 753 mmHg 38%
    14:00 +30°C° 0 mm 2 mps 752 mmHg 36%
    15:00 +31°C° 0 mm 2 mps 751 mmHg 34%
    16:00 +31°C° 0 mm 2 mps 751 mmHg 33%
    17:00 +29°C° 0 mm 2 mps 751 mmHg 38%
    18:00 +27°C° 0 mm 1 mps 751 mmHg 43%
    19:00 +25°C° 0 mm 1 mps 751 mmHg 48%
    20:00 +24°C° 0 mm 2 mps 751 mmHg 52%
    21:00 +23°C° 0 mm 2 mps 752 mmHg 56%
    22:00 +21°C° 0 mm 3 mps 752 mmHg 59%
    23:00 +21°C° 0 mm 3 mps 752 mmHg 61%

    22 November, Wednesday

    Time Temperature Precipitation Wind Pressure Humidity
    00:00 +20°C° 0 mm 3 mps 751 mmHg 63%
    01:00 +19°C° 0 mm 3 mps 751 mmHg 65%
    02:00 +19°C° 0 mm 3 mps 751 mmHg 66%
    03:00 +18°C° 0 mm 3 mps 751 mmHg 67%
    04:00 +17°C° 0 mm 3 mps 751 mmHg 68%
    05:00 +18°C° 0 mm 4 mps 751 mmHg 67%
    06:00 +19°C° 0 mm 4 mps 752 mmHg 65%
    07:00 +19°C° 0 mm 5 mps 752 mmHg 64%
    08:00 +21°C° 0 mm 5 mps 752 mmHg 58%
    09:00 +25°C° 0 mm 4 mps 752 mmHg 52%
    10:00 +27°C° 0 mm 4 mps 751 mmHg 46%
    11:00 +28°C° 0 mm 4 mps 751 mmHg 42%
    12:00 +29°C° 0 mm 3 mps 750 mmHg 37%
    13:00 +31°C° 0 mm 3 mps 749 mmHg 33%
    14:00 +31°C° 0 mm 2 mps 749 mmHg 31%
    15:00 +31°C° 0 mm 2 mps 748 mmHg 30%
    16:00 +32°C° 0 mm 2 mps 748 mmHg 29%
    17:00 +30°C° 0 mm 2 mps 748 mmHg 34%
    18:00 +28°C° 0 mm 2 mps 748 mmHg 39%
    19:00 +26°C° 0 mm 2 mps 748 mmHg 43%
    20:00 +25°C° 0 mm 2 mps 748 mmHg 48%
    21:00 +22°C° 0 mm 3 mps 748 mmHg 52%
    22:00 +21°C° 0 mm 4 mps 748 mmHg 57%
    23:00 +21°C° 0 mm 4 mps 748 mmHg 60%

    23 November, Thursday

    Time Temperature Precipitation Wind Pressure Humidity
    00:00 +20°C° 0 mm 4 mps 748 mmHg 64%
    01:00 +19°C° 0 mm 4 mps 747 mmHg 67%
    02:00 +19°C° 0 mm 4 mps 747 mmHg 68%
    03:00 +18°C° 0 mm 4 mps 747 mmHg 68%
    04:00 +18°C° 0 mm 4 mps 747 mmHg 68%
    05:00 +19°C° 0 mm 4 mps 747 mmHg 66%
    06:00 +20°C° 0 mm 5 mps 748 mmHg 65%
    07:00 +21°C° 0 mm 5 mps 748 mmHg 64%
    08:00 +23°C° 0 mm 5 mps 748 mmHg 56%
    09:00 +26°C° 0 mm 5 mps 748 mmHg 48%
    10:00 +29°C° 0 mm 5 mps 748 mmHg 41%
    11:00 +30°C° 0 mm 4 mps 748 mmHg 35%
    12:00 +32°C° 0 mm 4 mps 747 mmHg 30%
    13:00 +34°C° 0 mm 3 mps 746 mmHg 24%
    14:00 +34°C° 0 mm 3 mps 746 mmHg 24%
    15:00 +34°C° 0 mm 3 mps 746 mmHg 25%
    16:00 +34°C° 0 mm 3 mps 745 mmHg 25%
    17:00 +31°C° 0 mm 3 mps 745 mmHg 29%
    18:00 +29°C° 0 mm 2 mps 746 mmHg 34%
    19:00 +27°C° 0 mm 2 mps 746 mmHg 38%
    20:00 +26°C° 0 mm 2 mps 746 mmHg 39%
    21:00 +26°C° 0 mm 3 mps 747 mmHg 39%
    22:00 +25°C° 0 mm 3 mps 747 mmHg 40%
    23:00 +24°C° 0 mm 2 mps 747 mmHg 44%
    Show more